Location: Unspecified
(56.5167°N, 0.0000°E)
Time: 10:20:28
(UTC+02:00)

Resurs 1-4 Rocket - Pass Details

Date: 10 August 2020
Orbit: 799 x 815 km, 98.6° (Epoch: 23 September)

Event Time Altitude Azimuth Distance (km) Brightness Sun altitude
Rises 02:14:17 0° 24° (NNE) 3,336 6.6 -18.0°
Reaches altitude 10° 02:17:29 10° 44° (NE) 2,397 5.3 -18.0°
Maximum altitude 02:20:56 17° 85° (E) 1,920 4.1 -17.9°
Drops below altitude 10° 02:24:22 10° 126° (SE) 2,380 4.2 -17.9°
Enters shadow 02:24:25 10° 127° (SE) 2,392 4.3 -17.9°
